Date String (YYYY-MM-DD hh:mm:ss) UTC,Instrument flags,Ambient pressure (hPa),Sample flow (lpm),Bypass flow (lpm),Sample temperature (°C),Ambient temperature (°C),ASC tube jacket temperature (°C),LED temperature (°C),Box temperature (°C),Sample RH (%),Span deviation,Mass concentration (μg/m³),Mass concentration (μg/m³),Mass concentration (μg/m³)
DateTimeUTC,F1_M11,P_M11,Q1_M11,Q2_M11,T1_M11,T2_M11,T3_M11,T4_M11,T5_M11,U1_M11,ZSPAN_M11,X2_M11,X0_M11,X1_M11
2023-04-23 20:00:00,,0828.3,4.99,0.00,23.2,21.9,00.0,31.5,24.8,14.8,0002.1,0007.61,0010.19,0007.21
2023-04-23 20:01:00,,0828.3,5.01,0.00,23.2,21.9,00.0,31.5,24.8,14.7,0002.1,0007.63,0010.57,0007.25
2023-04-23 20:02:00,,0828.3,5.00,0.00,23.2,21.8,00.0,31.5,24.7,14.5,0002.0,0007.64,0010.78,0007.29
2023-04-23 20:03:00,,0828.3,4.99,0.00,23.1,21.8,00.0,31.5,24.7,14.7,0001.5,0007.66,0010.81,0007.31
2023-04-23 20:04:00,,0828.3,5.00,0.00,23.1,21.7,00.0,31.5,24.7,14.6,0001.4,0007.70,0010.84,0007.36
2023-04-23 20:05:00,,0828.2,5.00,0.00,23.1,21.7,00.0,31.5,24.7,14.4,0001.5,0007.74,0010.81,0007.41
2023-04-23 20:06:00,,0828.3,4.99,0.00,23.1,21.7,00.0,31.5,24.7,14.4,0001.4,0007.77,0011.09,0007.46
2023-04-23 20:07:00,,0828.2,5.00,0.00,23.1,21.6,00.0,31.5,24.7,14.6,0001.2,0007.79,0011.91,0007.50
2023-04-23 20:08:00,,0828.2,5.01,0.00,23.1,21.7,00.0,31.5,24.7,14.7,0001.2,0007.85,0011.99,0007.56
2023-04-23 20:09:00,,0828.2,5.01,0.00,23.1,21.7,00.0,31.5,24.8,14.6,0000.9,0007.88,0012.03,0007.57
2023-04-23 20:10:00,,0828.2,5.01,0.00,23.2,21.8,00.0,31.5,24.8,14.6,0000.7,0007.91,0011.99,0007.59
2023-04-23 20:11:00,,0828.2,5.00,0.00,23.2,21.9,00.0,31.6,24.9,14.8,0000.8,0007.90,0012.00,0007.60
2023-04-23 20:12:00,,0828.2,5.00,0.00,23.2,22.0,00.0,31.6,24.9,14.7,0000.3,0007.93,0012.18,0007.61
2023-04-23 20:13:00,,0828.1,5.00,0.00,23.2,22.0,00.0,31.6,24.9,14.5,0000.1,0007.95,0011.87,0007.61
2023-04-23 20:14:00,,0828.2,5.00,0.00,23.3,22.0,00.0,31.6,24.9,14.8,0001.0,0007.98,0011.95,0007.63
2023-04-23 20:15:00,,0828.1,5.00,0.00,23.3,22.0,00.0,31.6,24.9,14.5,0001.0,0007.98,0012.00,0007.63
2023-04-23 20:16:00,,0828.1,5.00,0.00,23.3,22.0,00.0,31.6,24.9,14.6,0001.4,0007.98,0012.07,0007.61
2023-04-23 20:17:00,,0828.1,4.99,0.00,23.3,22.0,00.0,31.6,24.9,14.7,0001.4,0007.98,0011.94,0007.60
2023-04-23 20:18:00,,0828.1,5.00,0.00,23.3,22.0,00.0,31.6,24.9,14.6,0001.4,0008.01,0011.62,0007.61
2023-04-23 20:19:00,,0828.1,5.00,0.00,23.3,22.0,00.0,31.6,24.9,14.5,0001.4,0008.00,0011.96,0007.59
2023-04-23 20:20:00,,0828.1,5.00,0.00,23.3,21.9,00.0,31.6,24.9,14.2,0001.2,0007.98,0011.99,0007.57
2023-04-23 20:21:00,,0828.0,5.00,0.00,23.3,21.9,00.0,31.6,24.9,14.5,0001.0,0007.97,0011.97,0007.57
2023-04-23 20:22:00,,0828.1,5.00,0.00,23.3,21.9,00.0,31.6,24.9,14.6,0001.5,0007.98,0012.11,0007.55
2023-04-23 20:23:00,,0828.1,5.01,0.00,23.3,22.0,00.0,31.6,24.9,14.5,0001.9,0008.01,0012.34,0007.55
2023-04-23 20:24:00,,0828.1,5.00,0.00,23.3,22.1,00.0,31.7,25.0,14.5,0002.0,0008.04,0012.66,0007.55
2023-04-23 20:25:00,,0828.1,5.00,0.00,23.3,22.1,00.0,31.7,25.0,13.9,0001.8,0008.01,0012.58,0007.53
2023-04-23 20:26:00,,0828.1,5.00,0.00,23.3,22.0,00.0,31.7,25.0,14.1,0002.0,0008.02,0012.55,0007.53
2023-04-23 20:27:00,,0828.1,5.00,0.00,23.3,22.0,00.0,31.7,24.9,13.9,0002.1,0007.99,0012.43,0007.52
2023-04-23 20:28:00,,0828.1,5.00,0.00,23.3,22.0,00.0,31.7,25.0,13.9,0002.6,0007.99,0012.42,0007.52
2023-04-23 20:29:00,,0828.1,5.00,0.00,23.4,22.1,00.0,31.7,25.0,14.1,0002.7,0007.94,0012.21,0007.48
2023-04-23 20:30:00,,0828.1,5.00,0.00,23.4,22.1,00.0,31.7,24.9,14.1,0002.9,0007.94,0011.70,0007.48
2023-04-23 20:31:00,,0828.0,5.00,0.00,23.4,22.1,00.0,31.7,25.0,14.1,0002.8,0007.97,0011.55,0007.49
2023-04-23 20:32:00,,0828.0,5.00,0.00,23.4,22.0,00.0,31.7,25.0,14.2,0002.8,0007.95,0011.52,0007.49
2023-04-23 20:33:00,,0828.0,5.00,0.00,23.4,22.0,00.0,31.7,25.0,14.3,0002.4,0007.93,0011.49,0007.48
2023-04-23 20:34:00,,0828.1,4.99,0.00,23.4,22.0,00.0,31.7,25.0,14.6,0001.8,0007.90,0011.19,0007.46
2023-04-23 20:35:00,,0828.0,5.00,0.00,23.4,22.0,00.0,31.7,25.0,14.4,0001.7,0007.81,0010.47,0007.41
2023-04-23 20:36:00,,0828.0,5.00,0.00,23.4,22.0,00.0,31.7,25.0,14.7,0001.7,0007.75,0010.30,0007.35
2023-04-23 20:37:00,,0827.8,4.99,0.00,23.4,21.9,00.0,31.7,24.9,14.4,0001.5,0007.69,0010.25,0007.30
2023-04-23 20:38:00,,0827.9,5.00,0.00,23.4,21.9,00.0,31.7,24.9,14.3,0001.1,0007.68,0010.27,0007.28
2023-04-23 20:39:00,,0827.8,5.00,0.00,23.4,21.9,00.0,31.7,24.9,14.4,0000.4,0007.67,0010.26,0007.28
2023-04-23 20:40:00,,0827.8,5.00,0.00,23.4,22.0,00.0,31.7,24.9,14.5,0001.1,0007.68,0010.33,0007.29
2023-04-23 20:41:00,,0827.8,5.00,0.00,23.4,22.0,00.0,31.8,25.0,14.7,0000.7,0007.71,0010.33,0007.31
2023-04-23 20:42:00,,0827.8,5.01,0.00,23.4,22.0,00.0,31.8,24.9,14.4,0000.4,0007.70,0010.32,0007.31
2023-04-23 20:43:00,,0827.8,5.00,0.00,23.4,21.9,00.0,31.8,24.9,14.1,0000.8,0007.67,0010.29,0007.29
2023-04-23 20:44:00,,0827.8,5.00,0.00,23.4,21.9,00.0,31.8,24.9,14.6,0001.3,0007.68,0010.30,0007.28
2023-04-23 20:45:00,,0828.0,5.00,0.00,23.3,21.9,00.0,31.8,24.9,14.6,0001.7,0007.72,0010.33,0007.31
2023-04-23 20:46:00,,0827.8,5.00,0.00,23.3,21.9,00.0,31.8,24.9,14.3,0001.9,0007.78,0010.38,0007.37
2023-04-23 20:47:00,,0827.8,5.00,0.00,23.3,21.9,00.0,31.8,24.9,14.2,0002.6,0007.84,0010.42,0007.44
2023-04-23 20:48:00,,0827.8,5.01,0.00,23.3,21.8,00.0,31.8,24.9,14.2,0002.8,0007.92,0010.52,0007.51
2023-04-23 20:49:00,,0827.7,5.00,0.00,23.3,21.8,00.0,31.8,24.9,14.1,0002.7,0007.97,0010.56,0007.57
2023-04-23 20:50:00,,0827.7,5.01,0.00,23.3,21.9,00.0,31.8,24.9,14.3,0002.7,0008.01,0010.73,0007.60
2023-04-23 20:51:00,,0827.8,4.99,0.00,23.3,21.9,00.0,31.8,25.0,14.2,0002.5,0008.04,0010.80,0007.63
2023-04-23 20:52:00,,0827.8,5.00,0.00,23.4,22.0,00.0,31.8,25.0,14.4,0002.6,0008.03,0010.72,0007.64
2023-04-23 20:53:00,,0827.7,5.00,0.00,23.4,22.0,00.0,31.8,25.0,14.2,0002.3,0008.04,0010.72,0007.64
2023-04-23 20:54:00,,0827.7,4.99,0.00,23.4,22.0,00.0,31.8,25.0,14.2,0002.1,0008.07,0010.74,0007.67
2023-04-23 20:55:00,,0827.7,4.99,0.00,23.4,22.0,00.0,31.8,25.0,14.4,0001.8,0008.07,0010.79,0007.68
2023-04-23 20:56:00,,0827.7,5.00,0.00,23.4,22.1,00.0,31.8,25.0,14.2,0001.8,0008.07,0010.80,0007.68
2023-04-23 20:57:00,,0827.7,5.00,0.00,23.4,22.1,00.0,31.8,25.0,14.0,0001.9,0008.06,0010.83,0007.66
2023-04-23 20:58:00,,0827.7,5.00,0.00,23.4,22.2,00.0,31.8,25.1,14.2,0001.3,0008.06,0010.90,0007.64
2023-04-23 20:59:00,,0827.7,5.00,0.00,23.5,22.2,00.0,31.8,25.1,14.4,0001.1,0008.04,0010.88,0007.62
